Location: Caltech
(34.1382°N, 118.1253°W)
Time: 20:34:07
(UTC-07:00)

Cosmos 2219 - Visible Passes

Search period start: 29 August 2015 00:00
Search period end: 08 September 2015 00:00
Orbit: 833 x 861 km, 71.1° (Epoch: 29 August)

Date Brightness Start Highest point End Pass type
(mag) Time Alt. Az. Time Alt. Az. Time Alt. Az.
29 Aug 3.6 21:32:15 10° N 21:37:25 49° NE 21:37:25 49° NE visible
29 Aug 5.7 23:17:42 10° WNW 23:19:22 15° WNW 23:19:22 15° WNW visible
30 Aug 3.5 21:18:52 10° N 21:24:26 49° ENE 21:24:34 49° ENE visible
30 Aug 5.5 23:04:14 10° WNW 23:06:30 17° WNW 23:06:30 17° WNW visible
31 Aug 3.5 21:05:28 10° N 21:11:01 48° ENE 21:11:45 46° E visible
31 Aug 5.4 22:50:45 10° NW 22:53:42 19° W 22:53:42 19° W visible
01 Sep 3.6 20:52:05 10° N 20:57:36 47° ENE 20:59:00 39° ESE visible
01 Sep 5.3 22:37:17 10° NW 22:40:57 20° W 22:40:57 20° W visible
02 Sep 3.6 20:38:41 10° N 20:44:11 46° ENE 20:46:19 32° ESE visible
02 Sep 5.2 22:23:49 10° NW 22:28:03 20° WSW 22:28:17 20° WSW visible
03 Sep 3.6 20:25:17 10° N 20:30:46 45° ENE 20:33:44 25° ESE visible
03 Sep 5.2 22:10:22 10° NW 22:14:39 21° WSW 22:15:41 20° WSW visible
04 Sep 3.7 20:11:54 10° N 20:17:21 43° ENE 20:21:14 18° SE visible
04 Sep 5.2 21:56:54 10° NW 22:01:15 22° WSW 22:03:12 18° SW visible
05 Sep 3.7 19:58:30 10° N 20:03:56 42° ENE 20:08:51 13° SE visible
05 Sep 5.2 21:43:26 10° NW 21:47:51 22° WSW 21:50:49 15° SW visible
06 Sep 3.7 19:45:07 10° N 19:50:31 41° ENE 19:55:55 10° SE visible
06 Sep 5.3 21:29:58 10° NW 21:34:26 23° WSW 21:38:35 10° SSW visible
07 Sep 3.8 19:31:43 10° N 19:37:06 40° ENE 19:42:29 10° SE visible
07 Sep 5.3 21:16:31 10° NW 21:21:02 23° WSW 21:25:22 10° SSW visible
